{"data":{"norad_id":65868,"epoch":"2026-09-20T21:07:43.259520Z","epoch_age_seconds":73235,"freshness":"FRESH","line1":"1 65868U 25223Q   26263.88036180  .00025555  00000+0  76577-3 0  9996","line2":"2 65868  53.1592 103.7462 0000666  75.5745 284.5332 15.34364230 54146","mean_motion":15.3436423,"eccentricity":6.66e-5,"inclination_deg":53.1592,"raan_deg":103.7462,"arg_perigee_deg":75.5745,"mean_anomaly_deg":284.5332,"bstar":0.00076577,"rev_number":5414,"period_min":93.849945915384,"perigee_km":462.35395120992,"apogee_km":463.26516529148,"semimajor_km":6840.9465582507,"source":"CELESTRAK","updated_at":"2026-09-21T09:00:35.728190Z"}}